Prairie Du Chien, WI

10:45 AM CDT on March 24, 2017 (GMT -0500)
Prairie Du Chien Municipal

Weather History for KPDC - April, 2013

Change the Weather History Date:

Wednesday, April 17, 2013

  Actual Average Record
Temperature  
Mean Temperature 41 °F -  
Max Temperature 44 °F 64 °F 86 °F (1977)
Min Temperature 38 °F 38 °F 22 °F (1983)
Degree Days  
Heating Degree Days 24    
Moisture  
Dew Point 35 °F    
Average Humidity 79    
Maximum Humidity 97    
Minimum Humidity 54    
Precipitation  
Precipitation 0.97 in - - ()
Sea Level Pressure  
Sea Level Pressure 30.07 in    
Wind  
Wind Speed 6 mph (ENE)    
Max Wind Speed 20 mph    
Max Gust Speed 36 mph    
Visibility 9 miles    
Events Rain    
Averages and records for this station are not official NWS values.
T = Trace of Precipitation, MM = Missing Value Source: NWS Daily Summary

Daily Weather History Graph

Daily Weather History Graph

Search for Another Location

Airport or City:

Trip Planner

Search our weather history database for the weather conditions in past years. The results will help you decide how hot, cold, wet, or windy it might be!

Date:

Astronomy

Apr. 17, 2013 Rise Set
Actual Time 6:18 AM CDT 7:49 PM CDT
Civil Twilight 5:49 AM CDT 8:19 PM CDT
Nautical Twilight 5:13 AM CDT 8:55 PM CDT
Astronomical Twilight 4:35 AM CDT 9:33 PM CDT
Moon 11:30 AM CDT (4/17) 1:30 AM CDT (4/17)
Length of Visible Light 14h 30m
Length of Day
13h 30m
Waxing Crescent, 42% of the Moon is Illuminated
Apr 17
Waxing Crescent
Apr 18
First Quarter
Apr 25
Full
May 2
Last Quarter
May 9
New

Hourly Weather History & Observations

Time (CDT) Temp. Windchill Dew Point Humidity Pressure Visibility Wind Dir Wind Speed Gust Speed Precip Events Conditions
12:15 AM 43.3 °F - 31.3 °F 62% 30.27 in 10.0 mi Calm Calm - N/A   Mostly Cloudy
12:35 AM 44.8 °F 42.4 °F 28.9 °F 54% 30.28 in 10.0 mi ENE 4.6 mph - N/A   Mostly Cloudy
12:55 AM 44.6 °F 40.7 °F 29.1 °F 55% 30.28 in 10.0 mi ENE 6.9 mph - N/A   Overcast
1:15 AM 44.1 °F 40.1 °F 29.1 °F 56% 30.28 in 10.0 mi ENE 6.9 mph - N/A   Overcast
1:35 AM 43.9 °F 39.3 °F 29.5 °F 57% 30.27 in 10.0 mi ENE 8.1 mph - N/A   Overcast
1:55 AM 43.9 °F 37.5 °F 29.3 °F 57% 30.26 in 10.0 mi East 12.7 mph - N/A   Overcast
2:15 AM 43.7 °F 38.6 °F 29.3 °F 57% 30.26 in 10.0 mi East 9.2 mph - N/A   Overcast
2:35 AM 43.3 °F 38.6 °F 29.3 °F 58% 30.26 in 10.0 mi East 8.1 mph - N/A   Mostly Cloudy
2:55 AM 43.7 °F 40.3 °F 29.3 °F 57% 30.26 in 10.0 mi ENE 5.8 mph - N/A   Overcast
3:15 AM 43.3 °F 41.7 °F 29.8 °F 59% 30.27 in 10.0 mi ENE 3.5 mph - N/A   Overcast
3:35 AM 43.0 °F - 29.7 °F 59% 30.26 in 10.0 mi Calm Calm - N/A   Overcast
3:55 AM 42.8 °F 39.3 °F 29.8 °F 60% 30.25 in 10.0 mi ENE 5.8 mph - N/A   Overcast
4:35 AM 41.9 °F 39.0 °F 29.8 °F 62% 30.22 in 10.0 mi ENE 4.6 mph - N/A   Mostly Cloudy
4:55 AM 41.9 °F 36.9 °F 30.0 °F 63% 30.22 in 10.0 mi ENE 8.1 mph - N/A   Mostly Cloudy
5:15 AM 41.5 °F 34.2 °F 30.2 °F 64% 30.17 in 10.0 mi NE 13.8 mph 18.4 mph N/A   Overcast
5:35 AM 41.7 °F 38.8 °F 30.7 °F 65% 30.21 in 10.0 mi East 4.6 mph - N/A   Mostly Cloudy
5:55 AM 41.5 °F 37.8 °F 30.7 °F 65% 30.23 in 10.0 mi ESE 5.8 mph - N/A   Mostly Cloudy
6:15 AM 41.4 °F 38.4 °F 31.1 °F 67% 30.24 in 10.0 mi ESE 4.6 mph - N/A   Overcast
6:35 AM 41.4 °F 36.2 °F 31.1 °F 67% 30.21 in 10.0 mi East 8.1 mph - N/A   Overcast
6:55 AM 42.3 °F 38.6 °F 31.6 °F 66% 30.24 in 10.0 mi ESE 5.8 mph - N/A   Overcast
7:15 AM 41.4 °F 35.2 °F 32.7 °F 71% 30.17 in 10.0 mi ENE 10.4 mph 19.6 mph N/A Rain Light Rain
7:35 AM 41.4 °F 37.6 °F 32.5 °F 71% 30.18 in 10.0 mi ENE 5.8 mph - N/A Rain Light Rain
7:55 AM 41.2 °F 39.2 °F 33.1 °F 73% 30.20 in 10.0 mi NE 3.5 mph - 0.02 in Rain Light Rain
8:15 AM 41.0 °F - 34.0 °F 76% 30.24 in 7.0 mi Calm Calm - 0.02 in Rain Rain
8:35 AM 40.1 °F 38.0 °F 35.6 °F 84% 30.23 in 5.0 mi East 3.5 mph - 0.07 in Rain Rain
9:15 AM 40.3 °F 31.6 °F 34.7 °F 80% 30.14 in 10.0 mi East 17.3 mph 20.7 mph 0.01 in   Scattered Clouds
9:35 AM 40.1 °F 34.7 °F 35.4 °F 83% 30.17 in 10.0 mi ESE 8.1 mph - 0.01 in   Mostly Cloudy
9:55 AM 40.1 °F 36.1 °F 34.5 °F 80% 30.17 in 10.0 mi ENE 5.8 mph 17.3 mph 0.01 in Rain Rain
10:15 AM 40.1 °F 32.7 °F 34.7 °F 81% 30.16 in 10.0 mi East 12.7 mph 17.3 mph N/A Rain Light Rain
10:35 AM 40.1 °F 34.7 °F 34.9 °F 82% 30.16 in 7.0 mi ENE 8.1 mph - 0.01 in Rain Rain
10:55 AM 39.6 °F 37.4 °F 35.4 °F 85% 30.15 in 10.0 mi ENE 3.5 mph - 0.03 in Rain Light Rain
11:15 AM 39.6 °F - 35.2 °F 85% 30.15 in 5.0 mi Calm Calm - 0.03 in Rain Rain
12:15 PM 38.5 °F - 36.5 °F 93% 30.17 in 1.2 mi Calm Calm - 0.12 in Rain Light Rain
12:35 PM 38.5 °F 35.0 °F 36.9 °F 94% 30.16 in 1.8 mi North 4.6 mph - 0.22 in Rain Rain
12:55 PM 38.3 °F 34.8 °F 36.7 °F 94% 30.16 in 1.8 mi North 4.6 mph - 0.32 in   Overcast
1:15 PM 38.3 °F 33.2 °F 37.2 °F 96% 30.13 in 5.0 mi NE 6.9 mph - 0.05 in Rain Rain
1:35 PM 38.7 °F 29.8 °F 37.6 °F 96% 30.04 in 10.0 mi East 16.1 mph 20.7 mph 0.05 in   Light Drizzle
1:55 PM 38.3 °F 29.3 °F 37.4 °F 97% 29.98 in 10.0 mi ENE 16.1 mph 35.7 mph 0.06 in   Overcast
2:15 PM 39.0 °F 30.3 °F 38.1 °F 97% 29.97 in 10.0 mi ENE 16.1 mph 29.9 mph N/A   Overcast
2:35 PM 39.6 °F 33.0 °F 38.7 °F 97% 29.95 in 10.0 mi East 10.4 mph 26.5 mph N/A   Overcast
2:55 PM 39.9 °F 32.9 °F 39.0 °F 97% 29.98 in 10.0 mi ENE 11.5 mph 20.7 mph N/A   Overcast
3:35 PM 41.9 °F 37.5 °F 38.5 °F 88% 30.01 in 10.0 mi East 6.9 mph - N/A   Overcast
3:55 PM 42.3 °F 38.6 °F 38.3 °F 86% 30.02 in 10.0 mi East 5.8 mph - N/A   Overcast
4:15 PM 42.3 °F 38.6 °F 38.5 °F 86% 30.00 in 10.0 mi ENE 5.8 mph - N/A   Overcast
4:35 PM 42.3 °F 36.8 °F 38.5 °F 86% 29.97 in 10.0 mi ENE 9.2 mph - N/A   Overcast
4:55 PM 42.6 °F 38.4 °F 38.7 °F 86% 29.97 in 10.0 mi ENE 6.9 mph - N/A   Overcast
5:15 PM 42.4 °F 37.0 °F 39.2 °F 88% 29.96 in 10.0 mi ENE 9.2 mph - N/A   Overcast
5:35 PM 42.3 °F 35.1 °F 38.7 °F 87% 29.90 in 10.0 mi East 13.8 mph 23.0 mph N/A   Overcast
5:55 PM 42.4 °F 33.8 °F 38.8 °F 87% 29.85 in 10.0 mi ENE 19.6 mph 25.3 mph N/A   Overcast
6:15 PM 42.4 °F 36.5 °F 38.7 °F 86% 29.87 in 10.0 mi East 10.4 mph 20.7 mph N/A   Overcast
6:35 PM 42.8 °F 36.2 °F 39.2 °F 87% 29.86 in 10.0 mi ENE 12.7 mph 19.6 mph N/A   Overcast
6:55 PM 42.8 °F 37.0 °F 39.0 °F 86% 29.83 in 10.0 mi ENE 10.4 mph 27.6 mph N/A   Light Drizzle
7:15 PM 42.8 °F 37.5 °F 39.2 °F 87% 29.86 in 10.0 mi NE 9.2 mph - N/A   Overcast
7:35 PM 42.8 °F 38.6 °F 39.2 °F 87% 29.88 in 10.0 mi East 6.9 mph - N/A Rain Light Rain
7:55 PM 42.4 °F 39.6 °F 39.6 °F 90% 29.90 in 10.0 mi South 4.6 mph - 0.01 in Rain Rain
8:15 PM 43.0 °F 37.7 °F 40.1 °F 90% 29.86 in 10.0 mi ENE 9.2 mph - 0.03 in Rain Light Rain
8:35 PM 43.0 °F 37.7 °F 39.9 °F 89% 29.86 in 7.0 mi ENE 9.2 mph - 0.07 in Rain Rain
8:55 PM 42.8 °F 35.8 °F 40.1 °F 90% 29.82 in 7.0 mi East 13.8 mph - 0.14 in Rain Light Rain
9:15 PM 42.8 °F 40.1 °F 40.1 °F 90% 29.85 in 5.0 mi NNE 4.6 mph - 0.06 in Rain Rain
9:55 PM 42.6 °F 39.9 °F 39.9 °F 90% 29.86 in 7.0 mi North 4.6 mph - 0.13 in Rain Rain
10:15 PM 42.4 °F - 39.7 °F 90% 29.87 in 10.0 mi Calm Calm - 0.03 in Rain Rain
10:35 PM 42.1 °F 40.2 °F 39.7 °F 91% 29.89 in 7.0 mi SSW 3.5 mph - 0.06 in Rain Light Rain
10:55 PM 41.5 °F - 40.1 °F 95% 29.89 in 3.0 mi Calm Calm - 0.12 in Rain Heavy Rain
11:15 PM 41.9 °F 40.0 °F 40.3 °F 94% 29.84 in 7.0 mi East 3.5 mph - 0.02 in Rain Light Rain
11:35 PM 41.9 °F 40.0 °F 40.1 °F 93% 29.83 in 10.0 mi SE 3.5 mph - 0.03 in Rain Light Rain
11:55 PM 41.5 °F 35.0 °F 40.1 °F 95% 29.76 in 7.0 mi East 11.5 mph - 0.03 in Rain Light Rain